Weather in Bulakbashi

Uzbekistan     40°37′34″N   72°30′01″E
temp.,
°C
wind,
m/s
gust,
m/s
humid.,
%
clouds,
%
prec.,
mm/h
press.,
hPa
HPBL,
m
20 april, tue
tue2023:00+17e3335100 0.0 101238
02:00+15ese3340100 0.0 101134
05:00+14e3244100 0.0 101125
08:00+18ese223298 0.0 1012209
11:00+22w3425100 0.0 10121281
14:00+24w462298 0.0 10103004
17:00+19sse7945100 0.1 1011319
20:00+16e4852100 0.0 1010163
21 april, wed
wed2123:00+15e3561100 0.2 1011154
02:00+15ese2365100 0.3 100967
05:00+14s2675100 1.1 1011425
08:00+13sw4683100 3.4 1014374
11:00+12s6973100 6.7 1015631
14:00+15ssw6853100 1.0 10151181
17:00+15sw6951100 1.3 10151284
20:00+12wnw24597 0.1 101866
22 april, thu
thu2223:00+10ene22740 0.1 102027
02:00+9e33780 0.0 102145
05:00+8e33771 0.0 102239
08:00+13ssw34560 0.0 1023841
11:00+17wsw44384 0.0 10231732
14:00+19w33315 0.0 10222146
17:00+19wnw33305 0.0 10222227
20:00+15ene11410 0.0 102411
23 april, fri
fri2323:00+11e35530 0.0 102486
02:00+10e34520 0.0 102462
05:00+9e34510 0.0 102461
08:00+14e34365 0.0 1024328
11:00+19ne222822 0.0 10231478
14:00+22nne22210 0.0 10212127
17:00+22nne22201 0.0 10202005
20:00+16ene223156 0.0 102116
24 april, sat
sat2423:00+13e45422 0.0 102184
02:00+11e46445 0.0 102098
05:00+10e47425 0.0 102097
08:00+16e463092 0.0 1020287
11:00+22ene3220100 0.0 10181020
14:00+24nnw2216100 0.0 10161755
17:00+24nnw1115100 0.0 10161511
20:00+19ene2223100 0.0 101713